Terminal Aerodrome Forecast
Issued by NWS North Platte, NE

Home | Current Version | Previous Version | Text Only | Print | Product List | Glossary On
Versions: 1 2 3 4 5 6 7 8 9 10 11 12 13 14 15 16
111
FTUS43 KLBF 310229 AAB
TAFVTN
TAF AMD
KVTN 310229Z 3102/3124 34012KT P6SM VCTS SCT040 BKN090CB
     FM310300 31015G24KT P6SM SCT050 BKN100 OVC250
     FM310600 33009KT P6SM SCT100 OVC250
     FM311500 30015G22KT P6SM BKN250=

USA.gov is the U.S. government's official web portal to all federal, state and local government web resources and services.